Regional Weather Roundup
Issued by NWS Northern Indiana

Home | Current Version | Previous Version | Graphics & Text | Print | Product List | Glossary On
Versions: 1 2 3 4 5 6 7 8 9 10 11 12 13 14 15 16 17 18 19 20 21 22 23 24 25 26 27 28 29 30 31 32 33 34 35 36 37 38 39 40 41 42 43 44 45 46 47 48 49 50
000
ASUS43 KIWX 061300
RWRIWX

KIWX WEATHER ROUNDUP
NATIONAL WEATHER SERVICE NORTHERN INDIANA
800 AM EST TUE DEC 06 2016

NOTE: "FAIR" INDICATES FEW OR NO CLOUDS BELOW 12,000 FEET WITH NO
SIGNIFICANT WEATHER AND/OR OBSTRUCTIONS TO VISIBILITY.

* THESE STATIONS ARE NOT UNDER NWS QUALITY CONTROL. THEY ALSO MAY NOT
  REPORT WEATHER SUCH AS PRECIPITATION OR FOG.

INZ001>027-061400-
NORTHERN INDIANA

CITY           SKY/WX    TMP DP  RH WIND       PRES   REMARKS
GARY*          MOCLDY    32  30  93 E6        29.79  WCI  26
SOUTH BEND     PTCLDY    32  29  88 E7        29.80S WCI  26
GOSHEN         MOCLDY    33  28  81 E7        29.77F WCI  27
ANGOLA*        CLEAR     34  21  60 E7        29.79S WCI  28
FORT WAYNE     CLOUDY    32  28  85 NE12      29.76F WCI  23
PERU/GRISSOM   MOCLDY    32  31  96 NE8       29.73F WCI  25

$$
INZ028>050-061400-
CENTRAL INDIANA

CITY           SKY/WX    TMP DP  RH WIND       PRES   REMARKS
LAFAYETTE      CLOUDY    34  32  92 E7        29.75F WCI  28
KOKOMO*        CLOUDY    33  31  92 N7        29.75F WCI  27
MUNCIE*        LGT RAIN  35  31  85 E10       29.71F WCI  27
INDIANAPOLIS   CLOUDY    38  34  85 CALM      29.70F

$$
MIZ043>046-050>051-056>058-064>065-071>073-077>080-061400-
SOUTHWEST LOWER MICHIGAN

CITY           SKY/WX    TMP DP  RH WIND       PRES   REMARKS
BATTLE CREEK   MOCLDY    33  31  92 E7        29.81F WCI  27
BENTON HARBOR  MOCLDY    30  26  85 E6        29.80F FOG     WCI  24
COLDWATER*     CLOUDY    35  31  86 E12G18    29.79F WCI  27
HILLSDALE*     CLOUDY    32  32 100 E16G25    29.78F WCI  21
HOLLAND        PTCLDY    29  27  92 E6        29.82F WCI  23
GRAND RAPIDS   PTCLDY    29  26  89 NE6       29.84F FOG     WCI  23
KALAMAZOO      CLOUDY    32  28  85 NE3       29.82F FOG
STURGIS*       CLOUDY    34  29  83 E8        29.78F WCI  27
THREE RIVERS*  MOCLDY    32  31  94 NE5       29.79F FOG     WCI  27

$$
OHZ001>008-015>018-024>025-061400-
NORTHWEST OHIO

CITY           SKY/WX    TMP DP  RH WIND       PRES   REMARKS
DEFIANCE       CLOUDY    35  28  75 E12       29.80F WCI  27
FINDLAY        CLOUDY    34  27  75 E7        29.78F WCI  28
TOLEDO EXPRESS MOCLDY    36  32  85 E15       29.81F
TOLEDO METCALF MOCLDY    37  32  82 E12       29.82F
LIMA           CLOUDY    33  31  92 E8        29.76S WCI  26

$$
AND FOR LAKE MICHIGAN COASTAL AND OPEN LAKE BUOY OBSERVATIONS

STATION/POSITION TEMP    WIND        PRES    VSBY  WAVE
                 AIR SEA DIR/SP/G                  HT/PER
                 (F)     (DEG/KT/KT) (MB)    (MI)  (FT/S)
CALUMET HARBOR    37      90/  6/  9 1008.4F
SAINT JOSEPH      32      50/  2/  6 1010.8

$$
&&



USA.gov is the U.S. government's official web portal to all federal, state and local government web resources and services.